Temp
60 60 60 60 60 60 60 60 60 60 60 60 60 60 60 60 60 60 53 62 62 64 66 68 67 68 71 69 69 68 61 59 62 62 66 72 72 80 83 82 83 86 86 83 83
59 60 60 60 60 60 60 60 60 60 60 61 60 59 59 60 58 54 65 64 65 66 64 65 63 65 65 67 67 66 60 62 66 70 68 72 75 77 77 77 79 83 87 83 82
59 59 59 59 59 59 59 59 59 59 60 60 60 59 59 61 51 56 69 67 66 67 65 65 68 67 62 63 64 65 59 66 66 71 72 72 73 77 74 73 79 80 85 81 80
58 58 59 58 58 58 58 58 59 59 59 59 59 60 60 57 52 67 70 69 68 68 64 63 65 61 61 58 65 58 64 67 69 70 71 70 75 73 75 77 82 83 84 82 80
58 58 58 58 58 58 58 58 58 58 58 58 58 60 56 48 50 69 68 67 68 65 61 62 62 63 59 61 61 58 64 65 69 71 71 73 70 71 71 78 82 81 82 83 81
57 57 57 57 57 57 57 57 57 57 57 57 58 59 52 41 66 66 66 65 65 64 61 63 64 67 62 60 60 64 64 66 67 68 70 67 69 70 74 78 78 78 80 83 82
57 57 57 57 57 57 57 56 56 56 57 57 58 57 48 48 66 66 64 63 63 65 61 66 68 65 65 58 65 64 58 61 64 67 66 68 62 64 73 76 76 79 81 83 82
57 56 56 56 56 57 57 56 56 56 57 58 59 54 43 63 66 62 63 59 64 64 60 63 66 64 61 65 61 58 59 54 64 63 66 66 58 69 74 73 73 76 80 80 82
56 56 55 56 56 56 56 56 56 57 58 59 54 51 46 63 56 62 63 56 59 60 61 64 62 58 60 56 54 55 52 52 57 65 66 63 60 70 75 72 72 75 78 80 82
56 55 55 55 55 55 55 55 56 57 59 60 57 45 53 54 59 61 63 60 57 56 54 54 53 51 53 52 45 49 49 52 53 61 64 63 60 69 71 72 73 77 78 77 80
55 55 55 55 55 55 54 54 53 51 51 51 53 52 60 63 67 62 61 56 56 54 46 51 43 41 49 53 57 57 53 53 58 64 61 60 62 64 71 70 71 73 75 75 76
55 55 55 55 55 54 54 48 47 47 37 49 48 51 57 61 50 57 64 52 51 47 52 48 41 52 55 54 53 54 51 52 58 63 60 62 60 66 69 70 73 73 75 76 77
54 54 54 54 54 52 48 49 55 53 40 46 50 49 51 55 47 51 58 55 49 46 48 45 51 55 52 50 48 50 50 50 54 60 63 60 58 62 68 70 73 75 77 78 78
54 54 54 53 52 51 51 54 55 52 34 42 48 53 56 56 48 59 61 55 49 45 48 48 56 53 50 49 51 45 55 55 56 55 50 62 50 58 66 67 69 73 73 76 78
53 54 53 53 50 48 54 54 55 49 24 49 53 64 59 53 56 58 63 58 48 46 48 46 49 49 46 50 54 50 56 54 56 54 53 55 51 60 62 63 68 72 75 76 78
53 53 53 51 50 53 54 54 51 34 25 44 54 50 49 53 55 59 56 60 57 49 48 49 59 55 54 56 56 59 54 54 55 54 44 53 52 55 60 65 70 74 75 76 77
53 53 52 53 51 57 54 50 35 27 45 40 41 47 45 44 49 52 49 47 44 35 35 41 48 55 58 51 55 54 50 40 38 40 42 55 50 57 64 63 65 67 68 69 74
52 51 51 53 57 53 51 42 27 38 34 41 41 42 37 45 43 46 46 43 49 46 42 36 32 49 54 54 48 50 51 44 33 37 44 51 46 56 63 59 62 63 64 68 69
51 50 52 57 56 54 46 32 30 32 36 35 37 37 39 39 38 39 43 44 46 48 39 39 39 55 55 58 59 51 47 60 49 51 46 50 53 55 57 58 60 61 64 64 61
48 45 52 58 54 51 41 32 33 42 40 39 30 37 32 35 35 37 42 48 44 47 50 42 37 49 55 58 60 56 60 47 52 38 38 47 50 54 53 54 55 56 57 57 57
47 44 56 56 53 44 30 32 38 45 43 35 34 33 34 33 35 35 41 48 47 43 45 44 35 37 53 42 49 52 50 54 53 50 44 40 48 55 56 57 55 55 54 53 53
46 41 55 56 42 39 34 37 42 42 47 40 39 36 35 34 34 35 37 43 48 44 38 44 37 35 43 48 57 59 52 55 47 43 49 52 45 53 58 56 55 51 51 52 53
41 41 54 53 31 32 39 39 42 41 41 39 36 39 41 35 31 37 37 49 48 44 42 38 35 34 35 41 47 51 53 57 56 53 47 45 40 52 55 52 51 49 50 52 53
42 36 44 45 44 35 33 37 36 45 42 43 39 42 38 35 39 33 36 44 45 44 49 44 37 42 39 40 40 42 51 55 55 48 48 50 42 47 49 49 49 50 53 53 53
40 36 39 32 34 35 38 36 35 33 41 43 38 40 34 31 33 36 39 39 44 45 45 44 35 44 48 47 45 47 51 53 52 55 51 49 49 49 50 48 49 52 52 53 53
38 36 40 35 39 37 38 36 34 35 36 35 34 35 35 32 34 31 35 35 36 41 39 42 34 41 42 48 48 44 53 54 55 52 49 51 46 54 52 51 51 53 53 50 49
44 44 37 36 37 35 35 34 33 38 40 41 35 33 34 36 39 39 39 39 38 36 37 37 35 41 37 46 45 38 50 55 55 57 53 49 50 51 49 49 50 50 49 47 48
MSLP
1020.42 1020.03 1019.65 1019.30 1018.90 1018.59 1018.30 1017.94 1017.60 1017.29 1017.04 1016.78 1016.45 1016.16 1015.76 1015.16 1014.52 1013.82 1012.42 1010.64 1010.64 1010.69 1010.91 1010.63 1010.62 1010.54 1010.64 1010.41 1010.46 1010.34 1009.16 1007.29 1006.73 1006.31 1005.66 1005.88 1005.52 1005.16 1004.82 1004.52 1004.42 1004.08 1004.02 1004.78 1005.26
1020.46 1020.00 1019.53 1019.14 1018.73 1018.35 1017.98 1017.61 1017.29 1016.97 1016.59 1016.31 1016.13 1015.93 1015.64 1015.18 1014.32 1012.25 1009.62 1009.92 1010.05 1010.16 1010.59 1010.18 1009.99 1010.23 1010.09 1009.83 1009.91 1009.29 1007.84 1006.70 1006.63 1006.08 1005.65 1005.47 1005.32 1005.12 1004.85 1004.54 1004.31 1004.09 1004.13 1004.84 1005.31
1020.41 1019.91 1019.41 1018.99 1018.58 1018.14 1017.67 1017.21 1016.83 1016.54 1016.26 1015.96 1015.84 1015.67 1015.46 1014.96 1013.52 1009.76 1008.51 1008.56 1009.45 1010.03 1010.30 1010.23 1009.74 1009.35 1009.47 1009.53 1009.13 1008.39 1006.53 1006.74 1006.32 1006.00 1005.77 1005.36 1005.15 1005.29 1004.88 1004.32 1004.25 1004.03 1003.90 1004.65 1005.09
1020.34 1019.83 1019.34 1018.83 1018.27 1017.73 1017.18 1016.67 1016.29 1016.02 1015.76 1015.57 1015.42 1015.22 1015.05 1014.84 1011.95 1008.21 1008.14 1008.73 1008.94 1009.35 1010.00 1009.73 1009.53 1009.09 1008.62 1008.27 1008.06 1007.53 1006.86 1006.67 1006.10 1005.94 1005.50 1004.91 1005.09 1004.83 1004.89 1004.27 1004.42 1004.33 1004.36 1004.55 1004.85
1020.19 1019.66 1019.11 1018.57 1018.06 1017.50 1016.88 1016.26 1015.78 1015.51 1015.25 1014.97 1014.84 1014.80 1014.70 1013.84 1010.11 1008.20 1007.94 1008.44 1008.64 1009.02 1008.95 1008.73 1008.44 1008.04 1007.48 1007.36 1007.62 1006.93 1006.67 1006.48 1006.12 1005.72 1005.32 1005.06 1004.84 1004.98 1004.77 1004.58 1004.53 1004.51 1004.31 1004.27 1004.43
1019.91 1019.31 1018.75 1018.18 1017.65 1017.10 1016.34 1015.58 1015.04 1014.74 1014.47 1014.21 1014.32 1014.44 1014.21 1012.43 1008.52 1008.50 1008.46 1008.41 1008.32 1008.45 1008.54 1008.47 1007.49 1007.32 1007.24 1007.10 1006.74 1006.27 1006.41 1006.04 1005.86 1005.52 1005.34 1004.91 1004.73 1005.13 1004.39 1004.40 1004.30 1004.27 1003.83 1003.90 1003.97
1019.79 1019.21 1018.52 1017.82 1017.19 1016.57 1015.86 1014.85 1014.05 1013.61 1013.46 1013.37 1013.29 1013.45 1012.80 1009.91 1008.05 1008.24 1008.63 1008.65 1008.62 1008.31 1008.12 1007.97 1007.65 1007.28 1006.88 1006.82 1006.55 1006.41 1006.37 1006.03 1005.40 1005.23 1004.98 1005.11 1003.78 1003.26 1004.14 1004.42 1004.03 1003.66 1003.37 1003.30 1003.58
1019.48 1018.97 1018.27 1017.33 1016.61 1015.88 1015.03 1014.09 1013.19 1012.59 1011.98 1011.74 1012.04 1012.52 1010.20 1007.87 1007.68 1007.79 1008.29 1008.57 1008.72 1008.83 1008.85 1008.54 1008.27 1007.73 1007.06 1006.47 1006.21 1006.19 1006.08 1004.95 1004.28 1004.77 1004.84 1005.10 1001.55 1002.62 1002.80 1003.23 1003.17 1003.11 1002.94 1002.76 1003.04
1019.31 1018.68 1018.02 1017.04 1016.03 1015.06 1014.21 1012.92 1011.83 1011.29 1010.84 1010.58 1011.30 1011.09 1008.48 1007.25 1006.90 1006.06 1006.70 1007.23 1007.61 1008.24 1008.78 1008.63 1008.24 1007.55 1006.98 1006.20 1005.77 1005.07 1003.43 1003.87 1003.98 1003.93 1003.87 1003.84 1002.34 1002.44 1002.57 1002.87 1002.56 1002.49 1002.41 1002.27 1002.36
1019.24 1018.47 1017.74 1016.59 1015.54 1014.47 1013.39 1011.55 1010.73 1010.43 1010.42 1010.23 1010.39 1010.80 1007.58 1005.68 1005.50 1005.53 1005.55 1006.69 1006.84 1007.21 1008.46 1008.53 1008.12 1007.17 1006.23 1005.00 1001.94 1003.01 1003.78 1003.63 1003.31 1003.22 1003.08 1002.42 1002.12 1001.99 1001.73 1001.83 1001.75 1001.59 1001.71 1002.01 1002.00
1018.84 1018.01 1017.19 1016.13 1015.06 1014.23 1013.10 1011.47 1011.04 1010.77 1010.50 1008.96 1007.88 1006.75 1004.82 1004.85 1004.70 1005.01 1005.63 1006.43 1006.61 1006.52 1006.58 1007.32 1006.99 1004.10 1004.22 1004.38 1003.99 1003.09 1003.30 1003.06 1002.84 1002.49 1002.46 1001.80 1001.71 1002.06 1001.63 1001.85 1001.77 1001.47 1001.42 1001.58 1001.78
1018.50 1017.54 1016.79 1015.68 1014.73 1013.91 1013.63 1012.95 1013.10 1013.37 1010.27 1008.06 1006.88 1006.05 1005.24 1005.29 1005.00 1004.55 1005.04 1005.60 1005.71 1005.38 1005.56 1006.08 1003.90 1004.27 1004.91 1005.01 1004.50 1003.58 1003.30 1003.06 1002.62 1002.31 1002.16 1001.32 1000.96 1001.24 1000.73 1000.96 1001.00 1000.86 1000.61 1000.82 1001.21
1018.06 1017.05 1016.28 1014.92 1013.92 1013.77 1013.60 1013.24 1013.19 1013.06 1011.28 1006.32 1005.53 1004.79 1004.25 1004.37 1004.52 1003.19 1003.62 1004.03 1004.55 1004.70 1004.62 1003.84 1001.86 1003.34 1003.88 1004.06 1004.09 1003.37 1002.94 1003.08 1002.28 1001.91 1001.74 1001.21 1000.41 1000.13 999.82 1000.28 1000.29 1000.28 1000.13 1000.19 1000.57
1017.82 1016.83 1015.84 1014.94 1013.74 1013.76 1013.04 1012.95 1013.03 1012.93 1010.85 1006.35 1004.53 1003.34 1003.44 1003.39 1003.10 1002.32 1002.18 1002.99 1004.06 1003.53 1003.63 1003.16 1002.00 1002.32 1002.40 1002.23 1002.91 1002.38 1003.01 1003.15 1002.38 1001.70 1000.88 1000.95 999.26 999.15 999.08 999.19 999.45 999.36 999.51 999.59 999.88
1017.43 1016.30 1015.46 1014.66 1014.26 1013.65 1013.05 1012.87 1012.73 1012.55 1009.52 1005.16 1003.54 1002.77 1002.98 1002.99 1002.21 1000.68 1001.30 1001.69 1001.72 1002.59 1003.02 1000.52 1000.88 1001.30 1001.63 1001.06 1002.12 1001.29 1002.46 1002.85 1002.48 1001.93 1001.28 1000.53 1000.11 998.30 998.93 998.26 998.45 998.60 998.62 998.81 999.00
1016.91 1015.87 1015.19 1014.53 1014.38 1013.24 1012.90 1012.61 1012.47 1011.52 1007.88 1005.14 1003.69 1003.25 1003.00 1002.29 1001.46 1000.64 1000.89 1001.34 1001.36 1001.54 1001.87 1001.14 1000.36 1000.46 999.87 1001.06 1001.60 1001.88 1002.23 1002.65 1002.60 1002.09 1001.15 999.81 999.80 998.28 998.16 997.90 997.94 997.99 998.18 998.34 998.74
1016.78 1015.26 1014.62 1014.43 1013.52 1012.84 1012.72 1012.23 1011.69 1010.21 1007.89 1006.47 1005.42 1004.47 1003.50 1002.52 1001.47 1000.66 1000.48 1000.77 1000.81 1001.47 1001.37 1001.37 1000.11 999.82 999.67 1000.15 1001.02 1001.24 1001.12 1001.26 1001.73 1001.26 999.22 999.20 999.87 997.94 998.45 998.89 998.80 998.54 998.64 998.96 998.97
1016.57 1015.17 1014.53 1014.02 1013.26 1012.96 1012.37 1011.79 1011.03 1009.83 1009.53 1008.52 1006.92 1005.27 1004.04 1002.85 1002.22 1001.44 1000.52 1000.27 1000.44 1000.64 1000.31 1000.06 999.90 998.95 999.00 998.41 998.70 999.59 999.17 998.13 998.07 998.29 998.33 999.61 998.66 998.25 999.24 1000.01 999.80 999.70 999.79 999.84 1000.12
1016.03 1015.08 1014.14 1013.39 1013.01 1012.77 1012.33 1011.81 1011.73 1011.38 1010.59 1009.29 1007.17 1005.56 1004.17 1004.06 1003.66 1002.44 1000.97 1000.20 1000.30 1000.34 1000.32 999.22 998.24 997.37 998.03 998.00 997.88 998.45 998.36 997.48 997.57 998.06 998.41 998.49 999.04 999.76 1000.16 1000.46 1000.53 1000.72 1000.87 1001.19 1001.66
1016.19 1015.49 1013.92 1013.19 1012.99 1012.78 1012.57 1012.60 1012.25 1011.45 1010.86 1010.03 1008.52 1006.85 1005.69 1004.70 1004.02 1002.96 1001.03 1000.01 1000.14 1000.39 1000.33 999.80 998.69 997.86 997.68 997.68 997.28 996.78 996.92 997.28 996.59 997.00 997.17 997.80 998.45 998.65 1000.12 1000.93 1001.51 1002.04 1002.42 1002.89 1003.24
1016.61 1015.22 1013.82 1013.29 1013.02 1013.40 1013.70 1013.50 1012.46 1011.47 1011.18 1010.70 1009.20 1007.96 1006.88 1005.87 1004.58 1003.08 1001.50 1000.25 1000.53 1000.58 1000.50 1000.18 999.83 999.30 997.97 997.85 996.25 996.41 996.90 996.78 996.69 996.59 996.24 997.32 998.54 999.89 1000.43 1001.40 1002.17 1003.01 1003.64 1004.13 1004.88
1017.09 1015.48 1014.20 1013.68 1013.55 1014.41 1014.23 1013.81 1012.66 1011.31 1010.71 1010.34 1009.58 1008.50 1007.64 1006.77 1005.15 1003.80 1002.47 1001.36 1000.51 1000.44 1000.13 999.65 999.86 998.63 997.42 998.48 997.17 996.12 996.37 995.92 995.70 996.54 996.82 996.87 999.78 1001.02 1001.28 1002.36 1003.11 1004.18 1004.97 1005.72 1006.34
1017.89 1016.69 1014.97 1014.57 1015.06 1015.16 1014.62 1013.59 1012.70 1011.45 1010.77 1010.30 1009.87 1009.02 1008.22 1007.36 1006.15 1004.61 1003.48 1001.73 1001.30 1000.63 999.62 1000.44 999.66 998.28 998.43 999.05 998.15 996.41 996.57 996.26 996.20 996.67 996.84 997.59 1000.52 1001.67 1002.47 1003.42 1004.51 1005.16 1006.14 1006.86 1007.39
1018.80 1017.57 1016.38 1016.28 1016.67 1016.40 1015.07 1013.61 1012.76 1011.84 1010.94 1010.64 1009.94 1009.07 1008.41 1007.44 1006.95 1005.35 1004.00 1002.40 1001.91 1000.85 999.56 999.74 999.01 997.64 996.49 996.35 997.44 996.70 996.29 996.37 996.15 996.40 997.03 997.91 1000.33 1001.80 1002.95 1004.10 1005.24 1006.07 1006.85 1007.65 1008.33
1019.73 1019.24 1018.96 1017.56 1016.70 1016.65 1015.75 1014.42 1013.25 1012.16 1011.57 1010.82 1009.90 1009.42 1009.27 1007.90 1006.55 1005.40 1004.79 1003.78 1002.26 1001.43 1000.39 999.91 999.33 997.99 996.77 996.37 996.65 996.87 996.15 996.40 996.35 996.63 996.95 998.57 999.84 1001.61 1003.10 1004.55 1005.63 1006.44 1007.50 1008.36 1009.19
1020.51 1020.27 1019.29 1018.55 1017.53 1016.66 1015.57 1014.50 1013.88 1012.89 1012.74 1011.01 1010.59 1009.84 1009.30 1008.49 1007.67 1006.30 1005.63 1005.29 1004.12 1002.54 1002.09 1000.99 1000.15 998.51 997.48 996.84 996.62 997.06 996.05 996.32 996.50 997.23 998.14 999.02 1001.06 1002.55 1003.93 1005.39 1006.37 1007.22 1008.12 1009.19 1010.25
1020.74 1020.42 1019.87 1018.40 1017.54 1016.93 1015.90 1015.44 1014.36 1013.65 1012.00 1011.25 1010.79 1009.70 1008.37 1007.88 1007.32 1006.52 1005.82 1005.40 1004.81 1004.41 1003.00 1001.52 1000.76 998.92 998.03 997.42 997.52 997.61 996.17 995.96 996.83 997.79 998.43 999.46 1001.27 1003.29 1005.08 1006.37 1007.33 1008.20 1009.46 1010.28 1011.09
Wind_Speed
17 18 17 17 17 17 18 17 16 15 14 15 15 14 16 19 20 18 18 14 13 20 8 7 8 11 10 7 3 4 8 14 16 15 9 1 4 6 2 7 3 3 3 5 8
20 19 19 19 19 19 19 19 18 17 16 15 14 13 14 16 18 23 18 12 19 3 14 12 12 16 8 10 7 11 11 15 7 15 8 8 13 6 5 6 5 5 4 5 11
21 21 20 21 21 20 20 20 20 19 19 18 16 13 13 13 9 9 3 14 14 16 7 10 9 11 11 7 11 11 18 13 11 15 12 14 16 9 8 14 12 9 7 2 8
21 22 22 22 22 22 22 22 21 20 19 17 17 14 11 5 11 6 12 9 7 13 11 12 14 10 11 14 15 13 16 15 12 10 11 15 12 13 13 17 6 6 6 5 6
21 22 22 22 22 22 23 24 23 22 20 19 17 14 6 9 18 6 11 9 4 15 17 14 20 18 16 13 9 21 12 16 21 13 18 16 16 12 7 9 10 9 15 13 10
21 22 23 23 23 23 24 24 24 23 21 19 17 13 9 18 6 9 9 9 6 17 16 15 13 15 12 8 20 5 20 17 12 20 20 22 21 16 8 12 12 10 13 10 13
23 24 25 26 26 25 25 26 26 27 26 22 19 11 16 27 6 2 3 3 3 12 12 18 11 16 9 5 16 13 8 11 20 20 15 7 22 22 19 17 18 15 15 13 11
24 23 26 28 28 28 28 28 29 31 29 22 16 11 14 11 19 28 26 28 22 11 4 5 11 11 8 3 4 15 15 18 14 11 12 11 20 6 17 18 20 18 16 13 10
25 23 26 28 29 30 30 32 33 26 16 10 7 9 11 3 9 14 19 13 10 20 11 8 5 11 11 12 12 14 14 20 12 14 10 20 12 16 19 13 14 13 14 13 13
27 25 27 28 29 31 31 33 20 4 2 7 4 6 9 6 5 4 3 17 5 9 16 9 8 12 16 19 21 14 17 9 16 14 23 23 18 9 2 17 19 16 14 12 13
28 27 26 28 29 29 20 7 4 1 3 10 9 17 18 10 6 6 7 14 2 7 14 17 11 25 25 24 19 15 16 19 12 8 16 22 21 19 16 10 11 13 13 12 13
30 30 29 30 28 25 6 4 3 3 17 22 27 30 27 19 14 17 10 10 10 10 14 13 29 21 14 20 21 18 9 11 12 18 13 14 22 20 21 17 16 16 15 14 12
29 30 30 29 28 3 4 2 2 8 8 16 7 9 7 12 11 8 13 18 15 17 19 21 10 27 22 19 25 23 22 9 5 12 13 6 15 12 15 16 14 14 13 15 15
30 30 30 30 3 6 4 1 2 2 6 8 4 4 5 6 5 10 15 8 13 18 19 21 25 13 29 29 23 27 23 16 9 9 10 10 5 11 17 14 15 16 14 15 15
31 31 30 18 6 5 5 5 6 4 8 6 2 5 1 4 12 4 19 12 14 14 15 17 17 28 25 26 25 22 19 21 14 9 5 10 7 7 5 14 17 15 16 17 17
31 33 29 1 3 6 7 9 3 4 5 10 5 15 14 20 18 8 14 12 3 15 21 23 12 23 25 21 22 10 20 20 16 11 13 19 12 6 10 14 12 10 8 13 14
33 32 18 3 9 9 8 3 4 5 17 10 15 20 23 21 17 9 13 12 9 6 10 16 25 18 20 20 23 20 22 11 12 11 9 13 13 9 7 2 5 5 3 2 9
33 25 6 4 12 7 3 3 4 11 9 14 15 26 8 6 9 9 6 11 13 13 6 12 9 27 17 24 17 28 23 12 19 17 15 6 12 4 4 3 2 4 5 9 13
25 6 5 8 9 1 3 2 5 7 9 12 22 8 3 3 4 5 9 14 5 15 10 10 14 20 17 20 23 28 24 12 10 10 10 9 4 5 5 5 6 8 10 13 15
9 5 6 15 5 2 4 6 5 12 12 10 8 6 7 10 8 5 5 3 3 4 11 3 9 7 25 23 25 28 25 13 7 12 12 12 8 6 9 8 8 10 12 13 15
4 4 6 16 2 5 6 7 12 15 15 7 7 7 6 8 12 4 5 5 5 6 9 6 1 4 23 11 25 19 22 18 4 3 7 9 8 2 8 9 11 12 12 13 14
5 4 8 9 7 3 9 13 17 11 20 5 9 10 5 14 7 5 7 8 5 8 5 9 3 6 24 11 17 16 23 20 12 8 2 2 6 3 9 10 12 14 14 15 16
8 4 4 5 7 9 12 12 10 19 16 7 8 6 8 11 8 10 7 13 19 9 3 3 4 5 9 1 4 16 29 16 8 2 5 4 5 4 12 14 15 16 16 16 17
5 6 4 4 8 13 16 10 16 18 12 17 12 9 16 16 8 11 11 10 21 19 9 8 4 4 5 11 8 9 25 21 13 7 6 3 11 11 15 15 16 16 18 17 15
5 3 2 8 9 16 17 7 22 17 6 13 6 13 20 10 13 3 14 13 15 14 10 3 4 6 10 17 22 15 21 23 16 12 2 13 17 18 15 17 17 18 18 19 18
4 5 3 9 12 15 10 10 16 21 13 14 8 23 16 12 14 19 9 6 6 11 12 9 3 5 7 18 25 16 13 24 16 7 11 16 10 13 15 16 17 19 20 18 16
1 3 3 6 11 12 9 19 23 22 11 14 19 20 17 11 10 17 17 13 16 12 7 4 5 2 5 19 17 10 12 19 14 8 12 13 13 18 18 15 14 15 17 17 17
Wind_Direction
354 351 348 344 341 337 333 329 324 319 315 311 313 317 319 316 307 296 256 225 193 237 210 138 146 164 160 179 175 165 221 227 225 221 224 210 199 223 218 238 223 226 271 26 148
354 351 348 344 340 336 331 327 323 320 317 313 310 313 316 311 305 283 254 223 223 221 204 186 160 159 173 185 184 203 226 224 223 226 225 242 245 214 230 193 213 233 277 43 169
351 347 344 342 338 334 329 325 322 321 319 317 316 312 311 315 296 240 328 194 209 213 194 205 166 165 186 185 185 203 231 228 224 231 236 246 247 228 246 248 248 249 291 44 179
345 343 341 338 334 330 325 321 318 317 316 313 309 305 304 296 284 166 113 73 169 183 182 175 186 188 198 198 201 234 229 229 226 219 234 238 249 237 236 246 267 239 305 305 220
343 340 336 331 329 326 321 316 313 312 308 302 299 298 304 256 246 262 284 336 312 170 188 185 188 199 202 207 203 229 230 217 234 230 236 252 243 257 231 248 248 258 285 276 242
338 335 331 328 326 324 318 311 306 303 298 290 287 281 250 259 263 233 291 308 224 179 191 195 206 205 224 215 211 209 223 234 228 236 244 252 254 234 229 232 247 260 268 265 235
337 336 332 328 325 322 317 310 304 302 298 287 270 251 241 236 234 153 191 31 344 216 210 205 212 194 191 213 228 222 221 226 235 230 242 253 256 244 238 240 255 259 270 268 232
336 334 331 326 323 320 315 308 300 298 295 286 258 228 249 249 252 255 256 261 258 261 266 272 226 236 218 244 139 211 233 234 205 202 230 216 249 4 194 204 223 234 244 250 218
335 332 330 324 321 319 316 308 301 300 291 263 189 197 253 286 233 252 237 225 221 226 230 266 204 224 199 217 219 206 226 223 235 215 206 204 257 246 235 200 221 225 234 232 231
336 332 330 324 322 321 321 305 300 296 125 124 140 196 241 224 194 215 169 183 187 168 203 213 218 207 213 199 209 203 223 207 206 193 213 219 228 254 193 219 219 223 233 235 234
336 332 329 327 326 326 325 325 3 217 335 233 236 243 276 267 285 169 110 154 192 166 176 190 209 213 207 214 220 220 209 224 205 204 208 231 235 233 237 223 233 234 233 227 225
335 332 333 330 326 326 328 15 343 324 295 256 253 262 263 276 289 261 191 188 190 206 187 175 224 217 218 217 220 224 192 217 222 220 219 233 240 229 244 235 234 227 230 227 216
333 331 332 331 323 336 323 287 334 337 276 298 248 247 246 184 221 254 189 214 217 230 210 210 230 201 203 203 213 223 218 204 197 191 214 235 242 224 238 220 221 218 225 228 218
331 330 332 333 316 335 308 201 255 260 286 286 272 274 165 159 256 212 177 145 204 229 217 233 236 220 206 209 201 215 211 208 200 211 202 206 248 215 226 213 209 206 210 223 216
330 329 330 334 295 293 348 306 308 187 293 13 16 133 127 281 310 221 186 195 182 197 206 215 205 207 204 209 204 221 183 199 221 230 238 195 242 240 220 229 214 210 209 214 220
330 328 331 309 265 256 311 310 218 253 269 324 337 345 331 323 295 256 180 232 228 220 212 248 223 196 206 207 202 193 178 189 201 218 233 227 225 212 206 228 217 208 235 236 221
333 325 327 293 313 329 307 275 267 252 350 359 330 321 313 293 318 241 206 196 200 185 210 219 243 227 202 194 196 204 169 159 187 196 217 215 210 219 200 248 292 300 299 158 166
332 321 310 253 313 313 286 277 283 356 325 315 297 308 265 344 297 315 255 241 225 231 267 201 191 213 203 198 180 193 182 176 172 186 188 155 213 201 230 357 345 61 84 111 121
329 325 300 343 337 302 308 351 345 338 305 319 309 282 294 6 267 298 268 257 241 207 225 205 224 177 188 200 186 189 199 187 145 176 171 170 144 152 145 122 89 85 96 92 96
328 324 323 347 350 340 27 338 316 319 332 307 287 312 318 309 307 288 277 211 222 223 243 285 214 209 192 205 197 184 189 194 195 168 176 182 188 128 161 141 114 101 104 89 86
336 341 351 343 29 34 32 325 308 313 323 302 300 291 297 335 304 272 284 309 95 296 251 182 68 205 196 182 193 183 190 213 145 250 176 153 185 56 151 139 126 111 84 79 81
327 325 5 340 33 352 352 329 304 307 337 315 278 298 318 320 296 294 315 320 233 197 211 187 137 182 195 153 228 177 200 190 195 156 83 208 103 339 139 130 116 95 90 93 92
329 296 352 346 20 1 331 327 317 323 338 341 302 302 337 330 310 315 309 322 339 326 232 167 207 135 118 66 258 200 185 193 206 134 192 142 128 141 124 114 110 108 107 107 104
336 336 339 26 360 342 334 342 339 329 318 336 286 295 327 325 334 296 324 324 339 338 61 173 252 345 173 161 129 179 180 194 188 190 157 96 138 150 139 123 123 120 117 109 103
7 21 17 315 334 329 322 304 337 347 326 320 292 322 328 310 311 289 334 332 323 354 354 43 2 358 139 150 153 174 170 181 191 171 176 154 149 156 142 136 133 124 116 113 106
0 340 310 293 307 325 334 335 324 325 320 310 285 309 301 289 288 301 320 346 305 340 338 358 324 312 148 156 150 172 177 182 183 100 81 134 100 132 117 126 130 128 122 108 101
294 256 266 288 317 333 327 324 312 321 303 298 304 304 303 292 297 287 279 269 264 293 307 328 327 65 119 151 143 151 195 167 136 168 147 159 147 128 125 127 124 116 113 108 99